User: anonymous   Login
Location: Petrozavodsk
(61.7857°N, 34.3593°E)
Time: 14:36:42
(UTC+03:00)
Language:

Terra - Orbit

View from above orbital plane
View from above orbital plane
View from above satellite
View from above satellite

Ground track
Ground track

The orbit data is extracted from the following two-line orbital elements,

1 25994U 99068A   18203.20586198  .00000116  00000-0  35791-4 0  9991
2 25994  98.2040 277.5657 0000925  80.2092 279.9239 14.57114509988924
Epoch (UTC): 22 July 2018 04:56:26
Eccentricity: 0.0000925
inclination: 98.2040°
perigee height: 702 km
apogee height: 703 km
right ascension of ascending node: 277.5657°
argument of perigee: 80.2092°
revolutions per day: 14.57114509
mean anomaly at epoch: 279.9239°
orbit number at epoch: 98892

The dashed part of the orbit path shows where the satellite is in the earth's shadow,  

DLR